Nantucket, MA

2:31 AM EDT on August 23, 2017 (GMT -0400)
Nantucket Memorial

Weather History for KACK - February, 2012

Change the Weather History Date:

Wednesday, February 22, 2012

  Actual Average Record
Temperature  
Mean Temperature 44 °F -  
Max Temperature 48 °F 40 °F 51 °F (1954)
Min Temperature 39 °F 26 °F 11 °F (1968)
Degree Days  
Heating Degree Days 22    
Moisture  
Dew Point 41 °F    
Average Humidity 91    
Maximum Humidity 100    
Minimum Humidity 80    
Precipitation  
Precipitation 0.13 in - - ()
Sea Level Pressure  
Sea Level Pressure 29.74 in    
Wind  
Wind Speed 11 mph (SW)    
Max Wind Speed 16 mph    
Max Gust Speed 22 mph    
Visibility 6 miles    
Events Rain    
Averages and records for this station are not official NWS values.
T = Trace of Precipitation, MM = Missing Value Source: NWS Daily Summary

Daily Weather History Graph

Daily Weather History Graph

Search for Another Location

Airport or City:

Trip Planner

Search our weather history database for the weather conditions in past years. The results will help you decide how hot, cold, wet, or windy it might be!

Date:

Astronomy

Feb. 22, 2012 Rise Set
Actual Time 6:25 AM EST 5:22 PM EST
Civil Twilight 5:58 AM EST 5:50 PM EST
Nautical Twilight 5:25 AM EST 6:22 PM EST
Astronomical Twilight 4:54 AM EST 6:54 PM EST
Moon 6:21 AM EST (2/22) 6:26 PM EST (2/22)
Length of Visible Light 11h 52m
Length of Day
10h 56m
New Moon, 1% of the Moon is Illuminated
Feb 22
New Moon
Feb 29
First Quarter
Mar 8
Full
Mar 14
Last Quarter
Mar 22
New

Hourly Weather History & Observations

Time (EST) Temp. Windchill Dew Point Humidity Pressure Visibility Wind Dir Wind Speed Gust Speed Precip Events Conditions
12:17 AM 44.6 °F 39.2 °F 42.8 °F 93% 29.86 in 4.0 mi SSW 10.4 mph 21.9 mph 0.05 in Rain Heavy Rain
12:36 AM 44.6 °F 37.4 °F 42.8 °F 93% 29.87 in 5.0 mi SW 16.1 mph - 0.13 in Rain Rain
12:53 AM 45.0 °F 38.9 °F 43.0 °F 93% 29.86 in 6.0 mi SW 12.7 mph - 0.13 in Rain Light Rain
1:10 AM 44.6 °F 38.4 °F 42.8 °F 93% 29.85 in 7.0 mi SW 12.7 mph - 0.00 in   Overcast
1:53 AM 42.1 °F 37.1 °F 41.0 °F 96% 29.84 in 4.0 mi WSW 8.1 mph - 0.00 in   Mostly Cloudy
2:33 AM 39.2 °F 34.2 °F 39.2 °F 100% 29.83 in 4.0 mi WSW 6.9 mph - N/A   Scattered Clouds
2:53 AM 41.0 °F 36.4 °F 39.9 °F 96% 29.83 in 6.0 mi SW 6.9 mph - N/A   Clear
3:53 AM 41.0 °F 36.4 °F 39.0 °F 93% 29.80 in 9.0 mi WSW 6.9 mph - N/A   Clear
4:53 AM 39.9 °F 36.7 °F 39.0 °F 97% 29.79 in 5.0 mi SW 4.6 mph - N/A   Clear
5:53 AM 41.0 °F 35.8 °F 39.0 °F 93% 29.78 in 6.0 mi SSW 8.1 mph - N/A   Clear
6:53 AM 42.8 °F 36.6 °F 41.0 °F 93% 29.76 in 4.0 mi SSW 11.5 mph - N/A   Mostly Cloudy
7:53 AM 44.1 °F 37.7 °F 43.0 °F 96% 29.77 in 4.0 mi SSW 12.7 mph - N/A   Scattered Clouds
8:53 AM 46.0 °F 40.2 °F 44.1 °F 93% 29.76 in 6.0 mi SSW 12.7 mph - N/A   Mostly Cloudy
9:53 AM 46.9 °F - 44.1 °F 90% 29.75 in 8.0 mi SSW 12.7 mph - N/A   Clear
10:53 AM 46.9 °F - 44.1 °F 90% 29.75 in 9.0 mi SSW 12.7 mph - N/A   Clear
1:53 PM 48.0 °F - 42.1 °F 80% 29.66 in 10.0 mi SSW 16.1 mph - N/A   Clear
2:53 PM 48.0 °F - 42.1 °F 80% 29.65 in 9.0 mi SW 13.8 mph - N/A   Clear
3:53 PM 46.0 °F 39.9 °F 41.0 °F 83% 29.65 in 8.0 mi SW 13.8 mph - N/A   Clear
4:53 PM 44.1 °F 38.1 °F 39.9 °F 85% 29.65 in 6.0 mi SW 11.5 mph - N/A   Clear
5:53 PM 42.1 °F 36.1 °F 39.0 °F 89% 29.67 in 5.0 mi SW 10.4 mph - N/A   Clear
6:53 PM 42.1 °F 35.2 °F 39.9 °F 92% 29.68 in 6.0 mi SW 12.7 mph - N/A   Clear
7:53 PM 43.0 °F 36.4 °F 39.9 °F 89% 29.68 in 7.0 mi SW 12.7 mph - N/A   Clear
8:53 PM 43.0 °F 36.4 °F 39.9 °F 89% 29.68 in 9.0 mi SW 12.7 mph - N/A   Clear
9:53 PM 43.0 °F 36.8 °F 39.9 °F 89% 29.67 in 9.0 mi SSW 11.5 mph - N/A   Clear
10:53 PM 41.0 °F 36.4 °F 39.0 °F 93% 29.65 in 6.0 mi South 6.9 mph - N/A   Clear
11:53 PM 44.1 °F 38.6 °F 41.0 °F 89% 29.62 in 8.0 mi South 10.4 mph - N/A   Clear